Regional Weather Roundup
Issued by NWS

Home | Current Version | Previous Version | Graphics & Text | Print | Product List | Glossary On
Versions: 1 2 3 4 5 6 7 8 9 10 11 12 13 14 15 16 17 18 19 20 21 22 23 24 25 26 27 28 29 30 31 32 33 34 35 36 37 38 39 40 41 42 43 44 45
000
ASUS45 KSLC 021710
RWRUT

UTAH REGIONAL WEATHER ROUNDUP
NATIONAL WEATHER SERVICE SALT LAKE CITY UT
1100 AM MDT WED SEP 02 2015

UTZ001>011-023>025-021800-

NORTHERN UTAH

CITY           SKY/WX    TMP DP  RH WIND       PRES   REMARKS
BRIGHAM CITY   SUNNY     84  40  21 S21G28    30.00S
HILL AFB       NOT AVBL
LOGAN          SUNNY     84  44  24 SW17G24   29.99F
OGDEN          SUNNY     83  47  28 S21G30    30.02R
PROVO AIRPORT  MOSUNNY   82  48  30 SE12      30.08S
SALT LAKE CITY MOSUNNY   83  47  28 S24G30    30.01S
VERNAL         SUNNY     72  47  40 SE6       30.17F
WENDOVER       SUNNY     84  37  18 S16       29.97S
HEBER CITY     MOSUNNY   77  41  27 SW15G28   30.13S
WEST JORDAN    SUNNY     81  48  32 SE18      30.05F

$$

UTZ012>022-026-027-021800-

SOUTHERN/CENTRAL UTAH

CITY           SKY/WX    TMP DP  RH WIND       PRES   REMARKS
BLANDING       MOSUNNY   76  49  38 SW5       30.31S
BRYCE CANYON   SUNNY     67  44  43 SW15      30.34R
CEDAR CITY     MOSUNNY   75  45  34 SW16G26   30.17S
DELTA          SUNNY     82  45  27 S23G30    30.09S
HANKSVILLE     SUNNY     73  52  46 CALM      30.15S
MILFORD        SUNNY     82  48  30 S22G33    30.11F
MOAB/CYNLANDS  MOSUNNY   76  53  44 SE8       30.12S
PRICE          SUNNY     72  46  39 S6        30.20F
ST GEORGE      MOSUNNY   88  52  29 SE5       30.02S

$$

REGIONAL REPORTS     COLORADO/ARIZONA

CITY           SKY/WX    TMP DP  RH WIND       PRES   REMARKS
CRAIG, CO      SUNNY     76  45  33 NE7       30.22F
GRAND JUNCTION SUNNY     74  50  42 SE6       30.16F
RIFLE          MOSUNNY   69  51  52 CALM      30.22F
MONTROSE       SUNNY     74  52  46 N7        30.24F
CORTEZ         PTSUNNY   76  49  38 VRB6      30.24F
PAGE, AZ       SUNNY     82  48  30 CALM      30.13S
GRAND CANYON   SUNNY     71  52  50 SW12G18   30.30S
KINGMAN        MOSUNNY   83  48  29 NW5       30.07R
FLAGSTAFF      SUNNY     69  54  58 S14G20    30.34S

$$

REGIONAL REPORTS    NEVADA/IDAHO/WYOMING

CITY           SKY/WX    TMP DP  RH WIND       PRES   REMARKS
LAS VEGAS, NV  MOSUNNY   90  53  28 S13       29.91S
ELY            PTSUNNY   76  44  32 S16       30.15S
ELKO           SUNNY     76  25  15 W7        30.03S
POCATELLO, ID  SUNNY     80  32  17 W20       29.98S
BURLEY         SUNNY     76  37  24 W10G18    29.94S
EVANSTON, WY   SUNNY     73  40  30 SW22G32   30.20S
ROCK SPRINGS   SUNNY     72  42  34 W9        30.20S
KEMMERER       SUNNY     73  34  23 SW22G28   30.20S

$$



USA.gov is the U.S. government's official web portal to all federal, state and local government web resources and services.